contact:dominique.lefevre@mio.osupytheas.fr, maurice.libes@osupytheas.fr, didier.mallarino@osupytheas.fr
Project:EMSO http://www.emso-fr.org/EMSO-France
Depth: 2436.0 m
Title:EMSO Ligure Ouest : Data MII capteur AQUADOPP
Date,Latitude,Longitude,X_East,Y_North,Z_Up,Amplitude_X,Amplitude_Y,Amplitude_Z,Batterie,SoundSpeed,Heading,Pitch,Roll,Pressure,TIS,Speed,Direction
, degrees North, degrees East, m.s-1, m.s-1,m.s-1, 1, 1, 1, Volt, m.s-1, degree, degree, degree, dbar, degree_C, m.s-1, degree
2020-09-14T00:04:03,42.805,6.029,0.022,-0.014,0.006,105.0,111.0,101.0,13.3,1505.2,324.8,-0.7,1.8,2470.395,13.3,0.026,122.5
2020-09-14T00:07:03,42.805,6.029,0.065,-0.011,-0.005,103.0,107.0,102.0,13.4,1505.3,323.2,-0.7,1.8,2470.333,13.31,0.065,99.6
2020-09-14T00:10:03,42.805,6.029,0.056,0.002,0.008,105.0,110.0,101.0,13.4,1505.3,324.5,-0.7,1.8,2470.405,13.31,0.056,88.0
2020-09-14T00:13:03,42.805,6.029,0.049,-0.006,0.01,104.0,111.0,101.0,13.4,1505.3,327.9,-0.7,1.8,2470.346,13.32,0.049,97.0
2020-09-14T00:16:04,42.805,6.029,0.034,-0.017,-0.02,102.0,110.0,102.0,13.3,1505.3,325.0,-0.7,1.9,2470.403,13.32,0.038,116.6
2020-09-14T00:19:03,42.805,6.029,0.023,-0.021,-0.005,104.0,110.0,101.0,13.4,1505.3,328.1,-0.7,1.8,2470.388,13.32,0.031,132.4
2020-09-14T00:22:03,42.805,6.029,0.049,-0.012,-0.005,104.0,108.0,102.0,13.3,1505.3,325.6,-0.7,1.8,2470.398,13.32,0.05,103.8
2020-09-14T00:25:03,42.805,6.029,0.023,-0.003,0.014,104.0,113.0,102.0,13.4,1505.3,327.4,-0.7,1.9,2470.345,13.32,0.023,97.4
2020-09-14T00:28:03,42.805,6.029,0.054,-0.001,0.022,103.0,107.0,102.0,13.3,1505.3,324.5,-0.7,1.8,2470.366,13.32,0.054,91.1
2020-09-14T00:31:03,42.805,6.029,0.064,-0.027,0.003,103.0,108.0,102.0,13.4,1505.3,327.1,-0.7,1.8,2470.312,13.32,0.069,112.9
2020-09-14T00:34:03,42.805,6.029,0.064,-0.017,0.007,104.0,106.0,101.0,13.4,1505.3,325.4,-0.7,1.8,2470.337,13.32,0.066,104.9
2020-09-14T00:37:03,42.805,6.029,0.071,-0.014,0.015,104.0,105.0,102.0,13.3,1505.3,328.1,-0.7,1.8,2470.353,13.32,0.072,101.2
2020-09-14T00:40:03,42.805,6.029,0.072,-0.021,0.01,104.0,109.0,102.0,13.4,1505.3,323.0,-0.7,1.8,2470.382,13.32,0.074,106.3
2020-09-14T00:43:03,42.805,6.029,0.075,-0.017,-0.001,103.0,107.0,102.0,13.4,1505.3,325.1,-0.7,1.8,2470.36,13.32,0.076,102.8
2020-09-14T00:46:06,42.805,6.029,0.058,-0.025,-0.014,104.0,106.0,102.0,13.4,1505.3,325.3,-0.7,1.8,2470.362,13.32,0.063,113.3
2020-09-14T00:49:03,42.805,6.029,0.074,-0.009,0.001,103.0,105.0,102.0,13.4,1505.3,327.0,-0.7,1.8,2470.348,13.32,0.074,96.9
2020-09-14T00:52:03,42.805,6.029,0.015,-0.006,-0.034,103.0,109.0,102.0,13.4,1505.3,326.1,-0.7,1.8,2470.315,13.32,0.016,111.8
2020-09-14T00:55:03,42.805,6.029,0.056,-0.006,0.021,104.0,107.0,101.0,13.3,1505.3,324.2,-0.7,1.8,2470.395,13.32,0.056,96.1
2020-09-14T00:58:03,42.805,6.029,0.028,-0.007,-0.025,103.0,107.0,101.0,13.4,1505.3,326.7,-0.7,1.8,2470.324,13.32,0.028,104.0
2020-09-14T01:04:03,42.805,6.029,0.074,-0.023,0.016,105.0,105.0,102.0,13.4,1505.2,323.6,-0.7,1.8,2470.378,13.3,0.077,107.3
2020-09-14T01:07:03,42.805,6.029,0.072,-0.018,-0.016,103.0,105.0,102.0,13.4,1505.3,322.6,-0.7,1.9,2470.373,13.31,0.074,104.0
2020-09-14T01:10:03,42.805,6.029,0.045,-0.022,-0.006,104.0,107.0,101.0,13.4,1505.3,326.5,-0.7,1.8,2470.411,13.31,0.05,116.1
2020-09-14T01:16:03,42.805,6.029,0.046,-0.021,-0.004,103.0,106.0,101.0,13.4,1505.2,326.8,-0.7,1.8,2470.431,13.3,0.05,114.5
2020-09-14T01:19:03,42.805,6.029,0.054,-0.032,-0.005,104.0,107.0,102.0,13.3,1505.3,324.9,-0.7,1.8,2470.357,13.31,0.062,120.7
2020-09-14T01:22:02,42.805,6.029,0.072,-0.011,-0.003,103.0,107.0,102.0,13.3,1505.3,325.4,-0.7,1.8,2470.436,13.31,0.072,98.7
2020-09-14T01:25:03,42.805,6.029,0.049,-0.021,-0.023,103.0,106.0,101.0,13.3,1505.3,323.4,-0.7,1.8,2470.426,13.31,0.053,113.2
2020-09-14T01:28:03,42.805,6.029,0.059,-0.027,0.012,105.0,105.0,101.0,13.4,1505.3,325.4,-0.7,1.8,2470.364,13.32,0.064,114.6
2020-09-14T01:31:03,42.805,6.029,0.057,-0.033,-0.012,103.0,105.0,101.0,13.3,1505.3,326.3,-0.7,1.8,2470.404,13.32,0.065,120.1
2020-09-14T01:34:03,42.805,6.029,0.051,-0.027,-0.011,103.0,104.0,101.0,13.3,1505.3,327.0,-0.7,1.9,2470.358,13.32,0.057,117.9
2020-09-14T01:37:02,42.805,6.029,0.065,-0.013,-0.013,103.0,105.0,100.0,13.4,1505.3,322.7,-0.7,1.8,2470.391,13.32,0.066,101.3
2020-09-14T01:40:03,42.805,6.029,0.067,-0.016,0.004,103.0,107.0,100.0,13.3,1505.3,323.7,-0.7,1.8,2470.408,13.32,0.068,103.4
2020-09-14T01:43:03,42.805,6.029,0.055,-0.025,-0.016,104.0,111.0,101.0,13.3,1505.3,323.8,-0.7,1.8,2470.376,13.32,0.06,114.4
2020-09-14T01:46:03,42.805,6.029,0.056,-0.015,-0.025,103.0,106.0,102.0,13.4,1505.3,326.3,-0.7,1.9,2470.398,13.32,0.057,105.0
2020-09-14T01:49:03,42.805,6.029,0.027,-0.014,0.01,103.0,105.0,101.0,13.3,1505.3,328.1,-0.7,1.8,2470.349,13.32,0.03,117.4
2020-09-14T01:52:03,42.805,6.029,0.039,-0.019,-0.004,103.0,108.0,102.0,13.3,1505.3,327.5,-0.7,1.8,2470.372,13.32,0.043,116.0
2020-09-14T01:55:03,42.805,6.029,0.074,0.01,0.032,103.0,107.0,101.0,13.3,1505.3,323.9,-0.7,1.8,2470.39,13.32,0.074,82.3
2020-09-14T01:58:03,42.805,6.029,0.037,-0.02,-0.017,104.0,106.0,101.0,13.4,1505.3,326.7,-0.7,1.8,2470.381,13.32,0.042,118.4
2020-09-14T02:04:03,42.805,6.029,0.055,-0.004,0.0,103.0,105.0,101.0,13.3,1505.2,326.2,-0.7,1.8,2470.435,13.3,0.055,94.2
2020-09-14T02:07:03,42.805,6.029,0.06,-0.04,-0.035,103.0,107.0,102.0,13.4,1505.3,325.0,-0.7,1.9,2470.412,13.31,0.072,123.7
2020-09-14T02:10:03,42.805,6.029,0.066,-0.027,0.001,104.0,109.0,100.0,13.3,1505.3,327.8,-0.7,1.8,2470.43,13.31,0.071,112.2
2020-09-14T02:13:03,42.805,6.029,0.069,-0.021,0.011,104.0,106.0,102.0,13.3,1505.3,326.0,-0.7,1.8,2470.386,13.32,0.072,106.9
2020-09-14T02:16:03,42.805,6.029,0.056,-0.022,-0.002,103.0,106.0,102.0,13.3,1505.3,326.3,-0.7,1.8,2470.423,13.32,0.06,111.4
2020-09-14T02:19:03,42.805,6.029,0.032,-0.026,-0.018,104.0,108.0,101.0,13.4,1505.3,325.0,-0.7,1.8,2470.375,13.32,0.041,129.1
2020-09-14T02:22:02,42.805,6.029,0.055,-0.018,0.018,103.0,109.0,101.0,13.4,1505.3,323.4,-0.7,1.8,2470.39,13.32,0.057,108.1
2020-09-14T02:25:03,42.805,6.029,0.034,-0.044,-0.018,103.0,106.0,101.0,13.4,1505.3,328.3,-0.8,1.8,2470.398,13.32,0.055,142.3
2020-09-14T02:28:03,42.805,6.029,0.061,-0.024,-0.039,103.0,106.0,101.0,13.4,1505.3,324.8,-0.7,1.9,2470.41,13.32,0.065,111.5
2020-09-14T02:31:03,42.805,6.029,0.045,-0.02,-0.013,102.0,104.0,101.0,13.3,1505.3,326.4,-0.7,1.8,2470.431,13.32,0.049,114.0
2020-09-14T02:34:03,42.805,6.029,0.054,-0.004,-0.02,103.0,106.0,101.0,13.3,1505.3,328.0,-0.7,1.8,2470.417,13.32,0.054,94.2
2020-09-14T02:37:03,42.805,6.029,0.041,-0.01,-0.003,103.0,106.0,101.0,13.4,1505.3,324.6,-0.7,1.8,2470.387,13.32,0.042,103.7
2020-09-14T02:40:03,42.805,6.029,0.064,-0.028,-0.014,103.0,105.0,102.0,13.4,1505.3,323.6,-0.7,1.8,2470.381,13.32,0.069,113.6
2020-09-14T02:43:03,42.805,6.029,0.043,-0.013,0.023,104.0,107.0,101.0,13.4,1505.3,323.0,-0.7,1.8,2470.355,13.32,0.044,106.8
2020-09-14T02:46:02,42.805,6.029,0.045,-0.001,-0.012,105.0,108.0,102.0,13.4,1505.3,326.9,-0.7,1.8,2470.432,13.32,0.045,91.3
2020-09-14T02:49:03,42.805,6.029,0.066,-0.014,0.008,103.0,106.0,101.0,13.3,1505.3,325.4,-0.7,1.8,2470.376,13.32,0.067,102.0
2020-09-14T02:52:03,42.805,6.029,0.042,-0.013,-0.019,103.0,106.0,101.0,13.4,1505.3,325.6,-0.7,1.8,2470.391,13.32,0.043,107.2
2020-09-14T02:55:03,42.805,6.029,0.062,-0.02,0.016,103.0,109.0,101.0,13.3,1505.3,326.3,-0.7,1.8,2470.425,13.32,0.065,107.9
2020-09-14T02:58:03,42.805,6.029,0.023,-0.003,-0.005,103.0,108.0,102.0,13.4,1505.3,325.7,-0.7,1.8,2470.39,13.32,0.023,97.4
2020-09-14T03:04:03,42.805,6.029,0.052,-0.003,-0.022,104.0,106.0,102.0,13.4,1505.2,326.8,-0.7,1.8,2470.385,13.3,0.052,93.3
2020-09-14T03:07:03,42.805,6.029,0.073,-0.006,-0.005,104.0,107.0,102.0,13.4,1505.3,326.4,-0.8,1.8,2470.452,13.31,0.073,94.7
2020-09-14T03:10:03,42.805,6.029,0.056,-0.031,-0.012,103.0,106.0,102.0,13.4,1505.3,324.3,-0.7,1.9,2470.452,13.31,0.064,119.0
2020-09-14T03:13:03,42.805,6.029,0.06,-0.01,0.0,103.0,108.0,102.0,13.3,1505.3,324.7,-0.7,1.8,2470.409,13.32,0.06,99.5
2020-09-14T03:16:03,42.805,6.029,0.061,-0.009,-0.008,104.0,106.0,101.0,13.3,1505.3,325.9,-0.7,1.8,2470.419,13.32,0.061,98.4
2020-09-14T03:19:03,42.805,6.029,0.062,-0.024,0.042,104.0,106.0,102.0,13.4,1505.3,326.0,-0.7,1.8,2470.428,13.32,0.066,111.2
2020-09-14T03:22:02,42.805,6.029,0.062,-0.025,-0.002,104.0,108.0,103.0,13.4,1505.3,327.3,-0.7,1.8,2470.425,13.32,0.066,112.0
2020-09-14T03:25:03,42.805,6.029,0.057,-0.013,-0.001,104.0,107.0,103.0,13.4,1505.3,326.0,-0.7,1.8,2470.415,13.32,0.058,102.8
2020-09-14T03:28:03,42.805,6.029,0.074,-0.006,0.007,102.0,106.0,102.0,13.4,1505.3,325.3,-0.7,1.9,2470.414,13.32,0.074,94.6
2020-09-14T03:31:03,42.805,6.029,0.051,-0.023,-0.003,104.0,106.0,102.0,13.4,1505.3,326.5,-0.7,1.8,2470.418,13.32,0.055,114.3
2020-09-14T03:34:03,42.805,6.029,0.071,-0.033,-0.007,104.0,105.0,102.0,13.3,1505.3,327.4,-0.7,1.9,2470.42,13.32,0.078,114.9
2020-09-14T03:37:03,42.805,6.029,0.05,-0.041,-0.014,102.0,107.0,101.0,13.3,1505.3,327.4,-0.7,1.8,2470.409,13.32,0.064,129.3
2020-09-14T03:40:03,42.805,6.029,0.042,-0.02,-0.009,104.0,109.0,101.0,13.4,1505.3,326.1,-0.7,1.8,2470.44,13.32,0.046,115.5
2020-09-14T03:43:03,42.805,6.029,0.07,-0.017,-0.017,103.0,108.0,102.0,13.3,1505.3,324.4,-0.7,1.8,2470.39,13.32,0.072,103.7
2020-09-14T03:46:06,42.805,6.029,0.046,-0.039,-0.016,103.0,105.0,102.0,13.4,1505.3,323.9,-0.7,1.8,2470.404,13.32,0.06,130.3
2020-09-14T03:49:03,42.805,6.029,0.04,-0.01,-0.029,104.0,106.0,102.0,13.4,1505.3,325.4,-0.7,1.8,2470.414,13.32,0.041,104.0
2020-09-14T03:52:03,42.805,6.029,0.063,-0.017,-0.003,103.0,107.0,101.0,13.4,1505.3,328.1,-0.7,1.8,2470.446,13.32,0.065,105.1
2020-09-14T03:55:03,42.805,6.029,0.044,-0.03,0.018,104.0,105.0,101.0,13.4,1505.3,326.6,-0.7,1.8,2470.427,13.32,0.053,124.3
2020-09-14T03:58:03,42.805,6.029,0.068,-0.027,-0.013,103.0,107.0,101.0,13.4,1505.3,325.7,-0.7,1.8,2470.42,13.32,0.073,111.7
2020-09-14T04:04:03,42.805,6.029,0.056,-0.027,-0.019,103.0,105.0,101.0,13.3,1505.2,323.8,-0.7,1.8,2470.453,13.3,0.062,115.7
2020-09-14T04:07:03,42.805,6.029,0.023,-0.028,-0.015,102.0,107.0,101.0,13.4,1505.3,327.0,-0.7,1.8,2470.468,13.31,0.036,140.6
2020-09-14T04:10:03,42.805,6.029,0.056,-0.018,-0.009,103.0,106.0,101.0,13.4,1505.3,327.0,-0.7,1.8,2470.457,13.31,0.058,107.8
2020-09-14T04:13:03,42.805,6.029,0.076,-0.049,-0.026,102.0,105.0,102.0,13.3,1505.3,327.8,-0.7,1.8,2470.475,13.32,0.09,122.8
2020-09-14T04:16:03,42.805,6.029,0.029,-0.012,-0.032,103.0,106.0,102.0,13.3,1505.3,327.3,-0.7,1.8,2470.463,13.32,0.031,112.5
2020-09-14T04:19:03,42.805,6.029,0.043,-0.013,0.0,103.0,108.0,102.0,13.4,1505.3,326.8,-0.7,1.9,2470.444,13.32,0.044,106.8
2020-09-14T04:22:03,42.805,6.029,0.043,-0.029,0.015,104.0,106.0,102.0,13.4,1505.3,325.9,-0.7,1.8,2470.402,13.32,0.051,124.0
2020-09-14T04:25:03,42.805,6.029,0.045,-0.017,-0.012,103.0,108.0,102.0,13.4,1505.3,328.1,-0.7,1.8,2470.437,13.32,0.048,110.7
2020-09-14T04:28:03,42.805,6.029,0.04,-0.009,-0.012,104.0,107.0,101.0,13.4,1505.3,327.9,-0.7,1.8,2470.394,13.32,0.041,102.7
2020-09-14T04:31:03,42.805,6.029,0.058,-0.02,0.007,103.0,108.0,100.0,13.4,1505.3,326.0,-0.7,1.8,2470.42,13.32,0.061,109.0
2020-09-14T04:34:03,42.805,6.029,0.046,-0.026,-0.036,101.0,105.0,103.0,13.4,1505.3,326.9,-0.7,1.8,2470.439,13.32,0.052,119.5
2020-09-14T04:37:03,42.805,6.029,0.065,-0.01,-0.001,104.0,107.0,101.0,13.4,1505.3,326.9,-0.7,1.8,2470.45,13.32,0.065,98.7
2020-09-14T04:40:03,42.805,6.029,0.054,-0.016,0.003,104.0,107.0,101.0,13.3,1505.3,324.0,-0.7,1.8,2470.42,13.32,0.056,106.5
2020-09-14T04:43:03,42.805,6.029,0.052,-0.034,-0.025,103.0,105.0,101.0,13.4,1505.3,324.1,-0.7,1.8,2470.415,13.32,0.062,123.2
2020-09-14T04:46:03,42.805,6.029,0.059,-0.019,-0.002,103.0,105.0,101.0,13.3,1505.3,324.2,-0.7,1.8,2470.442,13.32,0.061,107.8
2020-09-14T04:49:03,42.805,6.029,0.042,-0.02,0.023,104.0,106.0,100.0,13.4,1505.3,326.3,-0.7,1.8,2470.427,13.32,0.046,115.5
2020-09-14T04:52:03,42.805,6.029,0.059,-0.017,-0.014,104.0,107.0,102.0,13.4,1505.3,326.8,-0.7,1.8,2470.382,13.32,0.061,106.1
2020-09-14T04:55:03,42.805,6.029,0.047,-0.004,0.001,104.0,106.0,101.0,13.4,1505.3,325.3,-0.7,1.9,2470.448,13.32,0.047,94.9
2020-09-14T04:58:03,42.805,6.029,0.047,-0.008,0.006,102.0,106.0,102.0,13.4,1505.3,325.2,-0.7,1.8,2470.437,13.32,0.047,99.7
2020-09-14T05:04:03,42.805,6.029,0.04,-0.007,-0.004,103.0,106.0,101.0,13.3,1505.2,324.1,-0.7,1.8,2470.47,13.3,0.04,99.9
2020-09-14T05:07:03,42.805,6.029,0.064,-0.019,-0.012,104.0,107.0,101.0,13.4,1505.3,326.0,-0.7,1.8,2470.451,13.31,0.066,106.5
2020-09-14T05:10:03,42.805,6.029,0.072,-0.014,-0.011,103.0,106.0,101.0,13.3,1505.3,325.6,-0.7,1.8,2470.442,13.31,0.073,101.0
2020-09-14T05:13:03,42.805,6.029,0.057,-0.027,0.029,105.0,105.0,101.0,13.4,1505.3,325.9,-0.7,1.8,2470.428,13.32,0.063,115.3
2020-09-14T05:16:03,42.805,6.029,0.074,-0.01,0.031,103.0,105.0,101.0,13.3,1505.3,327.9,-0.7,1.8,2470.422,13.32,0.074,97.7
2020-09-14T05:19:03,42.805,6.029,0.048,-0.018,0.003,103.0,104.0,101.0,13.3,1505.3,324.4,-0.7,1.8,2470.434,13.32,0.051,110.6
2020-09-14T05:22:03,42.805,6.029,0.043,-0.014,0.021,103.0,108.0,101.0,13.4,1505.3,323.3,-0.7,1.8,2470.435,13.32,0.045,108.0
2020-09-14T05:25:03,42.805,6.029,0.031,-0.03,-0.01,104.0,107.0,101.0,13.4,1505.3,324.3,-0.7,1.8,2470.415,13.32,0.043,134.1
2020-09-14T05:28:03,42.805,6.029,0.059,-0.019,0.006,102.0,106.0,101.0,13.4,1505.3,324.4,-0.7,1.8,2470.418,13.32,0.061,107.8
2020-09-14T05:31:03,42.805,6.029,0.05,-0.025,-0.039,103.0,104.0,102.0,13.3,1505.3,322.7,-0.7,1.8,2470.411,13.32,0.055,116.6
2020-09-14T05:34:03,42.805,6.029,0.071,-0.036,-0.025,102.0,104.0,100.0,13.3,1505.3,323.7,-0.7,1.8,2470.443,13.32,0.079,116.9
2020-09-14T05:37:03,42.805,6.029,0.052,-0.015,-0.025,105.0,105.0,100.0,13.4,1505.3,324.8,-0.7,1.9,2470.373,13.32,0.054,106.1
2020-09-14T05:40:02,42.805,6.029,0.042,-0.03,-0.027,103.0,105.0,101.0,13.4,1505.3,326.4,-0.7,1.8,2470.387,13.32,0.051,125.5
2020-09-14T05:43:02,42.805,6.029,0.037,-0.022,-0.033,103.0,106.0,101.0,13.3,1505.3,326.6,-0.7,1.8,2470.421,13.32,0.043,120.7
2020-09-14T05:46:03,42.805,6.029,0.02,-0.014,-0.032,103.0,109.0,102.0,13.4,1505.3,324.7,-0.7,1.8,2470.436,13.32,0.024,125.0
2020-09-14T05:49:03,42.805,6.029,0.065,-0.025,-0.007,102.0,106.0,102.0,13.4,1505.3,326.5,-0.7,1.8,2470.391,13.32,0.069,111.0
2020-09-14T05:52:02,42.805,6.029,0.069,-0.007,0.0,104.0,104.0,102.0,13.4,1505.3,325.7,-0.7,1.8,2470.419,13.32,0.069,95.8
2020-09-14T05:55:03,42.805,6.029,0.041,-0.009,-0.014,104.0,104.0,101.0,13.3,1505.3,324.7,-0.7,1.8,2470.415,13.32,0.041,102.4
2020-09-14T05:58:03,42.805,6.029,0.048,-0.024,-0.015,105.0,106.0,101.0,13.4,1505.3,326.6,-0.7,1.8,2470.396,13.32,0.053,116.6
2020-09-14T06:04:03,42.805,6.029,0.077,-0.018,0.021,103.0,104.0,101.0,13.4,1505.2,324.1,-0.8,1.8,2470.438,13.3,0.079,103.2
2020-09-14T06:07:03,42.805,6.029,0.047,-0.021,-0.007,102.0,105.0,101.0,13.3,1505.3,327.6,-0.7,1.8,2470.413,13.31,0.051,114.1
2020-09-14T06:10:03,42.805,6.029,0.058,-0.018,-0.002,104.0,105.0,100.0,13.4,1505.3,328.6,-0.7,1.8,2470.413,13.31,0.06,107.2
2020-09-14T06:13:03,42.805,6.029,0.047,-0.021,-0.028,103.0,106.0,100.0,13.4,1505.3,325.1,-0.7,1.8,2470.4,13.32,0.051,114.1
2020-09-14T06:16:03,42.805,6.029,0.066,0.0,-0.007,104.0,107.0,100.0,13.4,1505.3,323.8,-0.7,1.9,2470.423,13.32,0.065,90.0
2020-09-14T06:19:03,42.805,6.029,0.052,-0.006,0.008,103.0,107.0,101.0,13.3,1505.3,325.5,-0.7,1.8,2470.427,13.32,0.052,96.6
2020-09-14T06:22:03,42.805,6.029,0.057,-0.016,0.004,103.0,106.0,101.0,13.4,1505.3,326.3,-0.7,1.8,2470.395,13.32,0.059,105.7
2020-09-14T06:25:02,42.805,6.029,0.042,-0.015,-0.02,104.0,107.0,101.0,13.4,1505.3,326.2,-0.7,1.9,2470.379,13.32,0.044,109.6
2020-09-14T06:28:02,42.805,6.029,0.046,-0.023,-0.014,103.0,106.0,101.0,13.3,1505.3,324.6,-0.7,1.8,2470.41,13.32,0.051,116.6
2020-09-14T06:31:03,42.805,6.029,0.062,-0.017,-0.024,101.0,105.0,102.0,13.4,1505.3,326.1,-0.7,1.8,2470.417,13.32,0.064,105.3
2020-09-14T06:34:03,42.805,6.029,0.047,-0.021,-0.009,103.0,106.0,101.0,13.4,1505.3,325.9,-0.7,1.8,2470.397,13.32,0.051,114.1
2020-09-14T06:37:02,42.805,6.029,0.057,-0.018,-0.039,103.0,105.0,101.0,13.4,1505.3,324.1,-0.7,1.8,2470.426,13.32,0.059,107.5
2020-09-14T06:40:03,42.805,6.029,0.063,-0.039,0.01,103.0,104.0,101.0,13.4,1505.3,325.1,-0.7,1.8,2470.389,13.32,0.074,121.8
2020-09-14T06:43:03,42.805,6.029,0.066,-0.025,-0.026,102.0,105.0,101.0,13.4,1505.3,325.4,-0.7,1.8,2470.4,13.32,0.07,110.7
2020-09-14T06:46:03,42.805,6.029,0.082,-0.045,-0.012,101.0,106.0,101.0,13.4,1505.3,325.1,-0.7,1.8,2470.398,13.32,0.093,118.8
2020-09-14T06:49:03,42.805,6.029,0.052,-0.025,0.01,103.0,105.0,102.0,13.3,1505.3,327.1,-0.7,1.8,2470.389,13.32,0.057,115.7
2020-09-14T06:52:03,42.805,6.029,0.057,-0.015,-0.01,102.0,106.0,101.0,13.4,1505.3,324.2,-0.7,1.8,2470.418,13.32,0.058,104.7
2020-09-14T06:55:03,42.805,6.029,0.055,-0.039,-0.007,103.0,106.0,101.0,13.4,1505.3,327.6,-0.7,1.8,2470.405,13.32,0.067,125.3
2020-09-14T06:58:02,42.805,6.029,0.062,-0.03,0.0,104.0,104.0,102.0,13.4,1505.3,322.8,-0.7,1.8,2470.398,13.32,0.068,115.8
2020-09-14T07:04:02,42.805,6.029,0.039,-0.02,-0.009,103.0,106.0,100.0,13.4,1505.2,324.2,-0.8,1.8,2470.437,13.3,0.043,117.1
2020-09-14T07:07:03,42.805,6.029,0.022,-0.01,-0.019,103.0,105.0,101.0,13.4,1505.3,323.7,-0.7,1.9,2470.453,13.31,0.024,114.4
2020-09-14T07:10:03,42.805,6.029,0.051,0.006,-0.008,104.0,106.0,101.0,13.4,1505.3,322.9,-0.7,1.8,2470.474,13.31,0.051,83.3
2020-09-14T07:13:03,42.805,6.029,0.044,-0.01,-0.008,103.0,106.0,100.0,13.4,1505.3,324.5,-0.7,1.8,2470.424,13.32,0.045,102.8
2020-09-14T07:16:03,42.805,6.029,0.072,-0.029,-0.014,103.0,105.0,101.0,13.4,1505.3,325.2,-0.7,1.8,2470.389,13.32,0.077,111.9
2020-09-14T07:19:03,42.805,6.029,0.056,-0.003,0.0,104.0,106.0,101.0,13.4,1505.3,324.3,-0.7,1.8,2470.426,13.32,0.056,93.1
2020-09-14T07:22:03,42.805,6.029,0.041,-0.018,-0.02,103.0,109.0,102.0,13.3,1505.3,326.6,-0.7,1.8,2470.376,13.32,0.044,113.7
2020-09-14T07:25:03,42.805,6.029,0.072,-0.033,-0.003,104.0,105.0,101.0,13.4,1505.3,326.8,-0.7,1.8,2470.363,13.32,0.079,114.6
2020-09-14T07:28:03,42.805,6.029,0.047,-0.022,-0.01,103.0,106.0,101.0,13.4,1505.3,325.3,-0.7,1.8,2470.369,13.32,0.051,115.1
2020-09-14T07:31:03,42.805,6.029,0.078,-0.021,-0.004,104.0,105.0,101.0,13.4,1505.3,324.4,-0.7,1.8,2470.408,13.32,0.08,105.1
2020-09-14T07:34:03,42.805,6.029,0.056,-0.015,0.001,104.0,106.0,101.0,13.4,1505.3,326.0,-0.7,1.8,2470.412,13.32,0.057,105.0
2020-09-14T07:37:03,42.805,6.029,0.049,0.0,-0.014,105.0,104.0,101.0,13.4,1505.3,328.1,-0.7,1.8,2470.371,13.32,0.049,90.0
2020-09-14T07:40:03,42.805,6.029,0.064,-0.009,-0.001,104.0,107.0,101.0,13.3,1505.3,324.3,-0.7,1.8,2470.376,13.32,0.064,98.0
2020-09-14T07:43:03,42.805,6.029,0.057,-0.023,0.01,104.0,106.0,101.0,13.4,1505.3,324.7,-0.7,1.8,2470.371,13.32,0.061,112.0
2020-09-14T07:46:05,42.805,6.029,0.051,-0.036,-0.009,103.0,105.0,102.0,13.4,1505.3,327.4,-0.7,1.8,2470.415,13.32,0.062,125.2
2020-09-14T07:49:03,42.805,6.029,0.06,-0.013,-0.008,104.0,104.0,102.0,13.3,1505.3,323.2,-0.7,1.8,2470.409,13.32,0.061,102.2
2020-09-14T07:52:03,42.805,6.029,0.056,-0.029,-0.03,104.0,105.0,101.0,13.3,1505.3,325.5,-0.7,1.8,2470.386,13.32,0.063,117.4
2020-09-14T07:55:03,42.805,6.029,0.048,-0.007,0.01,104.0,106.0,102.0,13.4,1505.3,324.1,-0.7,1.8,2470.403,13.32,0.048,98.3
2020-09-14T07:58:02,42.805,6.029,0.054,-0.036,-0.008,103.0,104.0,102.0,13.3,1505.3,327.7,-0.7,1.8,2470.394,13.32,0.064,123.7
2020-09-14T08:04:03,42.805,6.029,0.03,-0.028,-0.002,103.0,108.0,102.0,13.4,1505.2,327.4,-0.8,1.8,2470.414,13.3,0.041,133.0
2020-09-14T08:07:03,42.805,6.029,0.054,-0.011,-0.011,103.0,103.0,102.0,13.4,1505.3,327.5,-0.7,1.8,2470.381,13.31,0.055,101.5
2020-09-14T08:10:03,42.805,6.029,0.037,-0.027,0.003,104.0,104.0,101.0,13.4,1505.3,324.7,-0.7,1.8,2470.361,13.31,0.045,126.1
2020-09-14T08:13:03,42.805,6.029,0.065,-0.021,-0.012,102.0,104.0,101.0,13.4,1505.3,325.0,-0.7,1.9,2470.348,13.31,0.068,107.9
2020-09-14T08:16:03,42.805,6.029,0.04,-0.032,-0.021,103.0,104.0,101.0,13.3,1505.3,323.3,-0.7,1.9,2470.356,13.32,0.051,128.7
2020-09-14T08:19:03,42.805,6.029,0.039,0.003,0.015,101.0,105.0,101.0,13.3,1505.3,324.1,-0.7,1.8,2470.387,13.32,0.039,85.6
2020-09-14T08:22:03,42.805,6.029,0.064,-0.011,-0.016,103.0,105.0,101.0,13.3,1505.3,324.7,-0.7,1.8,2470.37,13.32,0.064,99.8
2020-09-14T08:28:03,42.805,6.029,0.052,-0.027,-0.028,104.0,103.0,101.0,13.4,1505.2,323.8,-0.7,1.8,2470.407,13.3,0.058,117.4
2020-09-14T08:31:03,42.805,6.029,0.045,-0.011,-0.025,101.0,105.0,102.0,13.3,1505.3,327.2,-0.7,1.8,2470.386,13.31,0.046,103.7
2020-09-14T08:34:03,42.805,6.029,0.058,-0.003,-0.026,103.0,106.0,100.0,13.4,1505.3,324.2,-0.7,1.8,2470.382,13.31,0.058,93.0
2020-09-14T08:37:03,42.805,6.029,0.048,0.003,0.006,103.0,106.0,100.0,13.4,1505.3,324.1,-0.7,1.8,2470.342,13.32,0.048,86.4
2020-09-14T08:40:03,42.805,6.029,0.055,-0.023,-0.002,102.0,105.0,101.0,13.3,1505.3,325.3,-0.7,1.9,2470.349,13.32,0.059,112.7
2020-09-14T08:43:03,42.805,6.029,0.049,-0.024,0.011,103.0,106.0,101.0,13.4,1505.3,327.7,-0.7,1.8,2470.374,13.32,0.054,116.1
2020-09-14T08:46:03,42.805,6.029,0.043,-0.013,0.007,104.0,104.0,101.0,13.4,1505.3,327.5,-0.7,1.8,2470.368,13.32,0.044,106.8
2020-09-14T08:49:03,42.805,6.029,0.058,-0.023,-0.019,103.0,105.0,102.0,13.3,1505.3,327.6,-0.7,1.8,2470.324,13.32,0.062,111.6
2020-09-14T08:52:03,42.805,6.029,0.05,-0.032,-0.038,102.0,106.0,101.0,13.4,1505.3,325.0,-0.7,1.8,2470.38,13.32,0.059,122.6
2020-09-14T08:55:03,42.805,6.029,0.052,-0.018,-0.024,103.0,106.0,100.0,13.3,1505.3,325.5,-0.7,1.8,2470.335,13.32,0.055,109.1
2020-09-14T08:58:03,42.805,6.029,0.046,-0.017,0.021,103.0,106.0,101.0,13.3,1505.3,322.5,-0.7,1.8,2470.362,13.32,0.049,110.3
2020-09-14T09:04:03,42.805,6.029,0.063,-0.03,-0.014,103.0,104.0,101.0,13.3,1505.2,324.0,-0.8,1.8,2470.375,13.3,0.069,115.5
2020-09-14T09:07:03,42.805,6.029,0.048,-0.041,-0.034,103.0,104.0,101.0,13.3,1505.3,324.4,-0.7,1.8,2470.351,13.31,0.063,130.5
2020-09-14T09:10:03,42.805,6.029,0.035,-0.011,-0.011,103.0,104.0,101.0,13.3,1505.3,325.8,-0.7,1.8,2470.342,13.31,0.036,107.4
2020-09-14T09:13:03,42.805,6.029,0.042,-0.017,0.0,103.0,105.0,101.0,13.4,1505.3,322.6,-0.7,1.8,2470.356,13.32,0.045,112.0
2020-09-14T09:16:03,42.805,6.029,0.06,-0.031,-0.006,102.0,107.0,101.0,13.4,1505.3,326.7,-0.7,1.8,2470.352,13.32,0.067,117.3
2020-09-14T09:19:02,42.805,6.029,0.061,-0.03,-0.035,102.0,106.0,101.0,13.3,1505.3,326.1,-0.7,1.8,2470.361,13.32,0.067,116.2
2020-09-14T09:22:03,42.805,6.029,0.069,-0.012,-0.004,104.0,104.0,100.0,13.4,1505.3,325.1,-0.7,1.8,2470.297,13.32,0.07,99.9
2020-09-14T09:25:03,42.805,6.029,0.053,-0.013,0.0,104.0,106.0,101.0,13.4,1505.3,324.2,-0.7,1.8,2470.329,13.32,0.054,103.8
2020-09-14T09:28:03,42.805,6.029,0.044,-0.007,-0.034,104.0,105.0,100.0,13.4,1505.3,324.1,-0.7,1.9,2470.305,13.32,0.044,99.0
2020-09-14T09:34:02,42.805,6.029,0.06,-0.005,-0.006,101.0,105.0,102.0,13.4,1505.2,325.5,-0.7,1.8,2470.364,13.3,0.06,94.8
2020-09-14T09:37:03,42.805,6.029,0.064,0.001,0.005,102.0,107.0,100.0,13.4,1505.3,322.9,-0.7,1.8,2470.383,13.31,0.064,89.1
2020-09-14T09:40:03,42.805,6.029,0.031,-0.021,-0.029,103.0,106.0,101.0,13.3,1505.3,327.9,-0.7,1.8,2470.343,13.31,0.037,124.1
2020-09-14T09:43:03,42.805,6.029,0.039,-0.012,-0.027,104.0,105.0,100.0,13.4,1505.3,326.9,-0.7,1.8,2470.358,13.32,0.04,107.1
2020-09-14T09:46:03,42.805,6.029,0.055,0.012,-0.01,103.0,105.0,101.0,13.3,1505.3,325.1,-0.7,1.8,2470.326,13.32,0.056,77.7
2020-09-14T09:49:03,42.805,6.029,0.057,-0.014,-0.016,103.0,106.0,101.0,13.4,1505.3,327.4,-0.7,1.8,2470.362,13.32,0.058,103.8
2020-09-14T09:52:03,42.805,6.029,0.043,-0.016,0.005,104.0,107.0,101.0,13.4,1505.3,327.0,-0.7,1.8,2470.328,13.32,0.045,110.4
2020-09-14T09:55:03,42.805,6.029,0.06,-0.012,0.009,103.0,109.0,101.0,13.3,1505.3,327.1,-0.7,1.8,2470.292,13.32,0.061,101.3
2020-09-14T09:58:03,42.805,6.029,0.039,-0.035,0.019,102.0,105.0,101.0,13.3,1505.3,326.3,-0.7,1.8,2470.313,13.32,0.052,131.9
2020-09-14T10:04:03,42.805,6.029,0.068,-0.026,0.016,102.0,105.0,102.0,13.3,1505.2,325.6,-0.7,1.8,2470.363,13.3,0.072,110.9
2020-09-14T10:07:03,42.805,6.029,0.043,-0.023,0.005,103.0,107.0,101.0,13.3,1505.3,326.3,-0.7,1.8,2470.344,13.31,0.048,118.1